Regional Weather Roundup
Issued by NWS

Home | Current Version | Previous Version | Text Only | Print | Product List | Glossary On
Versions: 1 2 3 4 5 6 7 8 9 10 11 12 13 14 15 16 17 18 19 20 21 22 23 24 25 26 27 28 29 30 31 32 33 34 35 36 37 38 39 40 41 42 43 44 45 46 47 48 49 50
000
ASUS42 KFFC 292203
RWRGA
WEATHER ROUNDUP FOR GEORGIA
NATIONAL WEATHER SERVICE PEACHTREE CITY GA
600 PM EDT FRI AUG 29 2014

NOTE: "FAIR" INDICATES FEW OR NO CLOUDS BELOW 12,000 FEET WITH NO
SIGNIFICANT WEATHER AND/OR OBSTRUCTIONS TO VISIBILITY.

* = USE WITH CAUTION. THE STATIONS MARKED WITH AN ASTERISK MAY NOT
REPORT WEATHER SUCH AS PRECIPITATION, FOG, OR THUNDER AND ARE NOT
QUALITY CONTROLLED BY NWS.

THE REMARK "TC" DENOTES TEMPERATURE READING IN DEGREES CELSIUS.

GAZ001>058-292300-
NORTH GEORGIA

CITY           SKY/WX    TMP DP  RH WIND       PRES   REMARKS
ATLANTA        MOSUNNY   91  56  30 SE8       30.05S
ATHENS         SUNNY     96  47  18 CALM      30.04R HX  92
CHAMBLEE       SUNNY     91  56  30 S8        30.06R
PEACHTREE CITY MOSUNNY   92  58  31 S6        30.04S HX  91
ROME           MOSUNNY   93  57  29 S10G18    30.01S HX  91
WEST ATLANTA   PTSUNNY   91  58  32 E6        30.04S HX  90
GAINESVILLE    MOSUNNY   92  54  27 E8        30.09R HX  90
CARTERSVILLE   MOSUNNY   92  58  31 MISG      30.04S HX  91


CITY           SKY/WX    TMP DP  RH WIND       PRES   REMARKS
DALTON*        SUNNY     90  59  35 CALM      30.02S
LAWRENCEVILLE* MOSUNNY   93  52  24 S6        30.06R HX  90
MARIETTA       PTSUNNY   91  58  32 S8        30.05F HX  90
KENNESAW*      MOSUNNY   90  57  33 S8        30.07S
$$

GAZ059>098-102>109-292300-
CENTRAL GEORGIA

CITY           SKY/WX    TMP DP  RH WIND       PRES   REMARKS
AUGUSTA-BUSH   MOSUNNY   94  55  26 SE7       30.03R HX  92
AUGUSTA-DANIEL SUNNY     95  53  24 SE7       30.05R HX  92
COLUMBUS       MOSUNNY   94  58  29 E7        29.99F HX  93
MACON          SUNNY     93  57  29 E6        30.02S HX  91
ROBINS AFB     SUNNY     93  62  34 E6        30.01F HX  94


CITY           SKY/WX    TMP DP  RH WIND       PRES   REMARKS
LAGRANGE*      SUNNY     97  63  32 SW8       30.03R HX  98
SYLVANIA*      SUNNY     91  64  41 S3        30.05R HX  92
MILLEDGEVILLE* MOSUNNY   95  64  36 CALM      30.03R HX  97
$$

GAZ099>101-110>166-292300-
SOUTH GEORGIA

CITY           SKY/WX    TMP DP  RH WIND       PRES   REMARKS
SAVANNAH       MOSUNNY   90  67  46 S10       30.05R HX  93
VALDOSTA       CLOUDY    88  73  61 VRB5      30.02R HX  95
ALMA           SUNNY     94  63  35 E5        30.01F HX  95
ST SIMONS      MOSUNNY   85  74  69 SE12      30.05R HX  92
FT STEWART     SUNNY     90  70  51 SE12      30.03R HX  95
ALBANY         PTSUNNY   86  74  67 SW9       30.01F HX  94
HUNTER AFB     SUNNY     87  71  58 SE9       30.04R HX  93
MOODY AFB      CLOUDY    91  69  48 S2        30.02R HX  95
BRUNSWICK      MOSUNNY   88  70  55 E12       30.05S HX  92


CITY           SKY/WX    TMP DP  RH WIND       PRES   REMARKS
BAINBRIDGE*    CLOUDY    81  77  89 S5        30.00F
MOULTRIE*      MOSUNNY   86  73  66 S5        30.03S HX  93
VIDALIA*         N/A     95  63  34 E5        30.02S HX  96
WAYCROSS*      MOSUNNY   94  71  46 SE8       30.01S HX 101
DOUGLAS*       SUNNY     97  59  28 E9        30.02S HX  96
$$



USA.gov is the U.S. government's official web portal to all federal, state and local government web resources and services.